Location: Julian California
(33.0790°N, 116.6010°W)
Time: 06:41:13
(UTC-07:00)

YAOGAN 6 - Pass Details

Date: 14 June 2018
Orbit: 466 x 508 km, 97.1° (Epoch: 18 June)

Event Time Altitude Azimuth Distance (km) Brightness Sun altitude
Rises 20:58:21 0° 189° (S) 2,546 5.9 -11.6°
Reaches altitude 10° 21:00:36 10° 200° (SSW) 1,662 5.1 -12.0°
Maximum altitude 21:03:46 29° 263° (W) 897 4.4 -12.5°
Drops below altitude 10° 21:06:55 10° 325° (NW) 1,652 6.6 -13.0°
Sets 21:09:09 0° 337° (NNW) 2,527 7.4 -13.4°
